Time,TemperatureF,DewpointF,PressureIn,WindDirection,WindDirectionDegrees,WindSpeedMPH,WindSpeedGustMPH,Humidity,HourlyPrecipIn,Conditions,Clouds,dailyrainin,SoftwareType,DateUTC
2013-03-31 00:12:00,51.8,48.4,29.89,West,270,0.0,-999.0,88,-99.99,,,0.01,Acu-Link.com,2013-03-31 04:12:00,
2013-03-31 00:27:00,51.8,49.0,29.89,West,270,0.0,-999.0,90,-99.99,,,0.04,Acu-Link.com,2013-03-31 04:27:00,
2013-03-31 00:43:00,51.8,51.3,29.88,NE,45,1.6,-999.0,98,-99.99,,,0.06,Acu-Link.com,2013-03-31 04:43:00,
2013-03-31 00:58:00,51.8,51.3,29.87,North,0,2.0,-999.0,98,-99.99,,,0.09,Acu-Link.com,2013-03-31 04:58:00,
2013-03-31 01:13:00,51.8,51.3,29.86,NNW,337,2.0,-999.0,98,-99.99,,,0.12,Acu-Link.com,2013-03-31 05:13:00,
2013-03-31 01:28:00,51.8,51.3,29.86,NNE,22,2.0,-999.0,98,-99.99,,,0.14,Acu-Link.com,2013-03-31 05:28:00,
2013-03-31 01:44:00,51.8,51.3,29.85,ESE,112,0.0,-999.0,98,-99.99,,,0.19,Acu-Link.com,2013-03-31 05:44:00,
2013-03-31 01:59:00,50.0,49.5,29.86,ESE,112,0.0,-999.0,98,-99.99,,,0.34,Acu-Link.com,2013-03-31 05:59:00,
2013-03-31 02:14:00,50.0,49.5,29.83,West,270,2.0,-999.0,98,-99.99,,,0.38,Acu-Link.com,2013-03-31 06:14:00,
2013-03-31 02:30:00,50.0,49.5,29.84,ESE,112,2.7,-999.0,98,-99.99,,,0.52,Acu-Link.com,2013-03-31 06:30:00,
2013-03-31 02:45:00,50.0,49.5,29.82,ENE,67,3.1,-999.0,98,-99.99,,,0.57,Acu-Link.com,2013-03-31 06:45:00,
2013-03-31 03:00:00,50.0,49.5,29.82,NNE,22,2.0,-999.0,98,-99.99,,,0.61,Acu-Link.com,2013-03-31 07:00:00,
2013-03-31 03:15:00,50.0,49.5,29.80,WNW,292,1.6,-999.0,98,-99.99,,,0.62,Acu-Link.com,2013-03-31 07:15:00,
2013-03-31 03:31:00,50.0,49.5,29.80,NW,315,1.1,-999.0,98,-99.99,,,0.65,Acu-Link.com,2013-03-31 07:31:00,
2013-03-31 04:01:00,50.0,49.5,29.79,NE,45,1.6,-999.0,98,-99.99,,,0.74,Acu-Link.com,2013-03-31 08:01:00,
2013-03-31 04:32:00,50.0,49.5,29.79,ESE,112,0.0,-999.0,98,-99.99,,,0.78,Acu-Link.com,2013-03-31 08:32:00,
2013-03-31 04:47:00,50.0,49.5,29.78,ENE,67,1.6,-999.0,98,-99.99,,,0.86,Acu-Link.com,2013-03-31 08:47:00,
2013-03-31 05:02:00,50.0,49.5,29.77,SSE,157,0.0,-999.0,98,-99.99,,,1.02,Acu-Link.com,2013-03-31 09:02:00,
2013-03-31 05:17:00,50.0,49.5,29.78,SSE,157,0.0,-999.0,98,-99.99,,,1.07,Acu-Link.com,2013-03-31 09:17:00,
2013-03-31 05:32:00,50.0,49.5,29.77,WSW,247,0.0,-999.0,98,-99.99,,,1.11,Acu-Link.com,2013-03-31 09:32:00,
2013-03-31 05:47:00,50.0,49.5,29.77,SE,135,0.0,-999.0,98,-99.99,,,1.12,Acu-Link.com,2013-03-31 09:47:00,
2013-03-31 06:02:00,50.0,49.5,29.76,ESE,112,2.7,-999.0,98,-99.99,,,1.13,Acu-Link.com,2013-03-31 10:02:00,
2013-03-31 06:18:00,50.0,49.5,29.76,SE,135,0.0,-999.0,98,-99.99,,,1.13,Acu-Link.com,2013-03-31 10:18:00,
2013-03-31 06:33:00,50.0,49.5,29.76,NW,315,2.0,-999.0,98,-99.99,,,1.13,Acu-Link.com,2013-03-31 10:33:00,
2013-03-31 06:48:00,51.8,51.3,29.75,West,270,0.0,-999.0,98,-99.99,,,1.14,Acu-Link.com,2013-03-31 10:48:00,
2013-03-31 07:04:00,50.0,49.5,29.75,WSW,247,0.0,-999.0,98,-99.99,,,1.14,Acu-Link.com,2013-03-31 11:04:00,
2013-03-31 07:19:00,51.8,51.3,29.75,South,180,0.0,-999.0,98,-99.99,,,1.14,Acu-Link.com,2013-03-31 11:19:00,
2013-03-31 07:34:00,51.8,51.3,29.75,South,180,1.6,-999.0,98,-99.99,,,1.14,Acu-Link.com,2013-03-31 11:34:00,
2013-03-31 07:49:00,51.8,51.3,29.75,South,180,2.0,-999.0,98,-99.99,,,1.14,Acu-Link.com,2013-03-31 11:49:00,
2013-03-31 08:06:00,51.8,51.3,29.75,South,180,3.6,-999.0,98,-99.99,,,1.14,Acu-Link.com,2013-03-31 12:06:00,
2013-03-31 08:52:00,53.6,53.0,29.76,West,270,7.8,-999.0,98,-99.99,,,1.14,Acu-Link.com,2013-03-31 12:52:00,
2013-03-31 09:07:00,53.6,53.0,29.76,SW,225,4.0,-999.0,98,-99.99,,,1.14,Acu-Link.com,2013-03-31 13:07:00,
2013-03-31 09:22:00,55.4,54.8,29.75,SW,225,6.7,-999.0,98,-99.99,,,1.14,Acu-Link.com,2013-03-31 13:22:00,
2013-03-31 09:37:00,55.4,54.8,29.76,SSW,202,6.7,-999.0,98,-99.99,,,1.14,Acu-Link.com,2013-03-31 13:37:00,
2013-03-31 09:52:00,55.4,54.8,29.76,SW,225,9.2,-999.0,98,-99.99,,,1.14,Acu-Link.com,2013-03-31 13:52:00,
2013-03-31 10:08:00,57.2,56.6,29.76,West,270,8.3,-999.0,98,-99.99,,,1.14,Acu-Link.com,2013-03-31 14:08:00,
2013-03-31 10:23:00,59.0,58.4,29.76,SW,225,6.3,-999.0,98,-99.99,,,1.14,Acu-Link.com,2013-03-31 14:23:00,
2013-03-31 10:38:00,59.0,56.1,29.76,SSW,202,8.7,-999.0,90,-99.99,,,1.14,Acu-Link.com,2013-03-31 14:38:00,
2013-03-31 10:54:00,60.8,56.6,29.76,West,270,10.3,-999.0,86,-99.99,,,1.14,Acu-Link.com,2013-03-31 14:54:00,
2013-03-31 11:09:00,60.8,54.9,29.75,South,180,11.4,-999.0,81,-99.99,,,1.14,Acu-Link.com,2013-03-31 15:09:00,
2013-03-31 11:24:00,62.6,55.6,29.74,West,270,13.0,-999.0,78,-99.99,,,1.14,Acu-Link.com,2013-03-31 15:24:00,
2013-03-31 11:40:00,62.6,53.4,29.75,WSW,247,9.2,-999.0,72,-99.99,,,1.14,Acu-Link.com,2013-03-31 15:40:00,
2013-03-31 11:55:00,66.2,55.3,29.74,SSW,202,10.7,-999.0,68,-99.99,,,1.14,Acu-Link.com,2013-03-31 15:55:00,
2013-03-31 12:10:00,68.0,55.4,29.74,SW,225,9.2,-999.0,64,-99.99,,,1.14,Acu-Link.com,2013-03-31 16:10:00,
2013-03-31 12:25:00,68.0,55.4,29.73,SW,225,11.9,-999.0,64,-99.99,,,1.14,Acu-Link.com,2013-03-31 16:25:00,
2013-03-31 12:56:00,68.0,54.5,29.74,WNW,292,5.1,-999.0,62,-99.99,,,1.14,Acu-Link.com,2013-03-31 16:56:00,
2013-03-31 13:11:00,68.0,54.0,29.74,WSW,247,10.7,-999.0,61,-99.99,,,1.14,Acu-Link.com,2013-03-31 17:11:00,
2013-03-31 13:26:00,68.0,55.8,29.73,South,180,9.2,-999.0,65,-99.99,,,1.14,Acu-Link.com,2013-03-31 17:26:00,
2013-03-31 13:42:00,66.2,54.1,29.73,West,270,8.3,-999.0,65,-99.99,,,1.14,Acu-Link.com,2013-03-31 17:42:00,
2013-03-31 13:57:00,68.0,55.4,29.73,SW,225,6.7,-999.0,64,-99.99,,,1.14,Acu-Link.com,2013-03-31 17:57:00,
2013-03-31 14:12:00,68.0,54.9,29.72,SW,225,6.3,-999.0,63,-99.99,,,1.14,Acu-Link.com,2013-03-31 18:12:00,
2013-03-31 14:28:00,68.0,53.6,29.72,WSW,247,8.7,-999.0,60,-99.99,,,1.14,Acu-Link.com,2013-03-31 18:28:00,
2013-03-31 14:43:00,68.0,54.0,29.71,SSW,202,8.3,-999.0,61,-99.99,,,1.14,Acu-Link.com,2013-03-31 18:43:00,
2013-03-31 14:58:00,66.2,52.3,29.71,SW,225,9.8,-999.0,61,-99.99,,,1.14,Acu-Link.com,2013-03-31 18:58:00,
2013-03-31 15:13:00,69.8,53.9,29.70,SW,225,8.7,-999.0,57,-99.99,,,1.14,Acu-Link.com,2013-03-31 19:13:00,
2013-03-31 15:28:00,68.0,52.7,29.70,SSW,202,10.3,-999.0,58,-99.99,,,1.14,Acu-Link.com,2013-03-31 19:28:00,
2013-03-31 15:43:00,68.0,53.6,29.70,SW,225,10.3,-999.0,60,-99.99,,,1.14,Acu-Link.com,2013-03-31 19:43:00,
2013-03-31 15:59:00,66.2,52.8,29.70,SW,225,6.3,-999.0,62,-99.99,,,1.14,Acu-Link.com,2013-03-31 19:59:00,
2013-03-31 16:14:00,64.4,53.2,29.70,WSW,247,8.7,-999.0,67,-99.99,,,1.14,Acu-Link.com,2013-03-31 20:14:00,
2013-03-31 16:29:00,62.6,55.6,29.71,SW,225,5.6,-999.0,78,-99.99,,,1.15,Acu-Link.com,2013-03-31 20:29:00,
2013-03-31 16:45:00,60.8,56.3,29.71,SW,225,4.0,-999.0,85,-99.99,,,1.17,Acu-Link.com,2013-03-31 20:45:00,
2013-03-31 17:00:00,60.8,56.3,29.70,WSW,247,5.1,-999.0,85,-99.99,,,1.17,Acu-Link.com,2013-03-31 21:00:00,
2013-03-31 17:15:00,60.8,55.9,29.69,WSW,247,3.6,-999.0,84,-99.99,,,1.17,Acu-Link.com,2013-03-31 21:15:00,
2013-03-31 17:31:00,62.6,57.0,29.68,WSW,247,8.7,-999.0,82,-99.99,,,1.18,Acu-Link.com,2013-03-31 21:31:00,
2013-03-31 17:46:00,62.6,56.7,29.68,SW,225,11.9,-999.0,81,-99.99,,,1.18,Acu-Link.com,2013-03-31 21:46:00,
2013-03-31 18:01:00,62.6,56.3,29.69,West,270,5.1,-999.0,80,-99.99,,,1.18,Acu-Link.com,2013-03-31 22:01:00,
2013-03-31 18:16:00,62.6,56.3,29.70,SW,225,10.7,-999.0,80,-99.99,,,1.18,Acu-Link.com,2013-03-31 22:16:00,
2013-03-31 18:32:00,62.6,56.3,29.69,West,270,5.1,-999.0,80,-99.99,,,1.18,Acu-Link.com,2013-03-31 22:32:00,
2013-03-31 18:47:00,62.6,56.0,29.70,West,270,3.1,-999.0,79,-99.99,,,1.18,Acu-Link.com,2013-03-31 22:47:00,
2013-03-31 19:02:00,62.6,56.0,29.69,South,180,3.6,-999.0,79,-99.99,,,1.18,Acu-Link.com,2013-03-31 23:02:00,
2013-03-31 19:18:00,62.6,56.3,29.69,SW,225,4.0,-999.0,80,-99.99,,,1.18,Acu-Link.com,2013-03-31 23:18:00,
2013-03-31 19:33:00,60.8,54.9,29.69,West,270,4.7,-999.0,81,-99.99,,,1.18,Acu-Link.com,2013-03-31 23:33:00,
2013-03-31 19:48:00,60.8,55.3,29.69,SW,225,3.6,-999.0,82,-99.99,,,1.18,Acu-Link.com,2013-03-31 23:48:00,
2013-03-31 20:04:00,60.8,55.6,29.69,SW,225,2.7,-999.0,83,-99.99,,,1.18,Acu-Link.com,2013-04-01 00:04:00,
2013-03-31 20:19:00,59.0,54.2,29.68,SSW,202,2.0,-999.0,84,-99.99,,,1.18,Acu-Link.com,2013-04-01 00:19:00,
2013-03-31 20:34:00,59.0,54.2,29.69,WSW,247,3.6,-999.0,84,-99.99,,,1.18,Acu-Link.com,2013-04-01 00:34:00,
2013-03-31 20:49:00,59.0,54.2,29.68,WNW,292,0.0,-999.0,84,-99.99,,,1.18,Acu-Link.com,2013-04-01 00:49:00,
2013-03-31 21:05:00,59.0,54.8,29.68,SW,225,2.0,-999.0,86,-99.99,,,1.18,Acu-Link.com,2013-04-01 01:05:00,
2013-03-31 21:20:00,57.2,53.4,29.69,West,270,0.0,-999.0,87,-99.99,,,1.18,Acu-Link.com,2013-04-01 01:20:00,
2013-03-31 21:35:00,57.2,54.0,29.69,SW,225,2.7,-999.0,89,-99.99,,,1.18,Acu-Link.com,2013-04-01 01:35:00,
2013-03-31 22:21:00,57.2,54.0,29.70,SW,225,2.0,-999.0,89,-99.99,,,1.18,Acu-Link.com,2013-04-01 02:21:00,
2013-03-31 22:37:00,57.2,54.0,29.70,SSW,202,2.7,-999.0,89,-99.99,,,1.18,Acu-Link.com,2013-04-01 02:37:00,
2013-03-31 22:52:00,59.0,55.8,29.70,WNW,292,3.6,-999.0,89,-99.99,,,1.18,Acu-Link.com,2013-04-01 02:52:00,
2013-03-31 23:07:00,59.0,56.1,29.70,West,270,3.6,-999.0,90,-99.99,,,1.18,Acu-Link.com,2013-04-01 03:07:00,
2013-03-31 23:22:00,59.0,56.4,29.70,WSW,247,2.7,-999.0,91,-99.99,,,1.18,Acu-Link.com,2013-04-01 03:22:00,
2013-03-31 23:38:00,57.2,54.9,29.69,SW,225,5.1,-999.0,92,-99.99,,,1.18,Acu-Link.com,2013-04-01 03:38:00,
2013-03-31 23:53:00,57.2,54.9,29.70,SSW,202,3.1,-999.0,92,-99.99,,,1.18,Acu-Link.com,2013-04-01 03:53:00,